Regional Weather Roundup
Issued by NWS Newport/Morehead, NC

Current Version | Previous Version | Graphics & Text | Print | Product List | Glossary Off
Versions: 1 2 3 4 5 6 7 8 9 10 11 12 13 14 15 16 17 18 19 20 21 22 23 24 25 26 27 28 29 30 31 32 33 34 35 36 37 38 39 40 41 42 43 44 45 46 47 48 49 50

286
ASUS42 KMHX 222113
RWRMHX
WEATHER ROUNDUP FOR EASTERN NORTH CAROLINA
NATIONAL WEATHER SERVICE NEWPORT/MOREHEAD CITY NC
400 PM EST MON JAN 22 2018

NOTE: "FAIR" INDICATES FEW OR NO CLOUDS BELOW 12,000 FEET
WITH NO SIGNIFICANT WEATHER AND/OR OBSTRUCTIONS TO VISIBILITY

NCZ015>017-031-032-045>047-102-103-222200-
NORTH COAST

CITY           SKY/WX    TMP DP  RH WIND       PRES   REMARKS
EDENTON        FAIR      63  50  61 S7        30.13F
ELIZABETH CITY FAIR      56  52  86 SE3       30.14R
KITTY HAWK     FAIR      57  41  54 CALM      30.13S
MANTEO         FAIR      54  39  57 S6        30.14F

$$

NCZ045>047-081-094-103-104-222200-
CENTRAL COAST

CITY           SKY/WX    TMP DP  RH WIND       PRES   REMARKS
FRISCO         NOT AVBL

$$

NCZ095-097-098-100-101-222200-
SOUTHERN COAST

CITY           SKY/WX    TMP DP  RH WIND       PRES   REMARKS
BEAUFORT       CLOUDY    63  53  70 SE5       30.15R
CEDAR ISLAND   NOT AVBL
JACKSONVILLE   LGT RAIN  57  56  96 CALM      30.14S
PINEY ISLAND   NOT AVBL
WILMINGTON     LGT RAIN  57  56  96 E9        30.13F FOG


$$

NCZ011>013-027>030-043-044-078>080-089-090>093-098-222200-
COASTAL PLAIN

CITY           SKY/WX    TMP DP  RH WIND       PRES   REMARKS
AHOSKIE        FAIR      62  46  55 S6        30.11F
CLINTON        FAIR      64  52  63 S5        30.11F
ELIZABETHTOWN  NOT AVBL
GOLDSBORO      FAIR      65  48  53 S7        30.09F
GREENVILLE     FAIR      64  50  59 S9        30.13S
HAVELOCK       NOT AVBL
KENANSVILLE    CLOUDY    64  52  63 S3        30.11F
KINSTON        PTSUNNY   66  50  55 S9        30.13S
NEW BERN       PTSUNNY   65  53  65 S7        30.14S
RICHLANDS      LGT RAIN  61  55  81 S10       30.15R
ROCKY MOUNT    FAIR      62  47  57 S6        30.10F
WASHINGTON     FAIR      64  49  56 CALM      30.13S
WHITEVILLE     PTSUNNY   62  53  70 E3        30.11S

$$

AMZ130-135-150-152-154-156-158-170-250-252-270-ANZ085-086-088-633-658-670-222200-
MARINE OBSERVATIONS

STATION/POSITION TIME  TEMP    WIND        PRES    WAVE   SWELL
                       AIR SEA DIR/SP/G            HT/PER HT/PER
                 (UTC) (F)     (DEG/KT/KT) (MB)    (FT/S) (FT/S)
CHESAPEAKE LIGHT NOT AVBL
64 E VA BEACH    2050   59 59  180/  6/  6 1021.4    1/ 9   2/ 9
DUCK             2036   47 40  150/ 10/ 11 1020.1
2 E DUCK         2100      42                N/A     1/10
OREGON INLET     2036   56 42  150/  5/  8 1020.7
13E OREGON INLT  2048      43                N/A     1/10   2/10
HATTERAS CG      2036   58 52  110/  4/  6 1020.7
DIAMOND BUOY     2100   67 73  190/  6/  8 1021.4
CAPE LOOKOUT     2100          110/  4/  5 1021.1
BEAUFORT LAB     2036   61 47  130/  5/  6 1020.8
30 SE NEW RVR IN 2008   61 58   80/  4/  6 1020.7
30 SE NEW RVR IN 2100      58                N/A     1/ 9
27 SE WRIGHTSVLE 2008   63 63   50/  4/  6 1020.4
5 SE WRIGHTSVLE  2008   48 47   10/  6/  8 1020.5
225 S CAPE HAT   2050   69 70  110/  8/  8 1021.9    2/10   2/10
41 SE CHARLESTON 2100   70 70  170/ 10/ 14 1019.1

$$




USA.gov is the U.S. government's official web portal to all federal, state and local government web resources and services.